Powrót do katalogu

GORIZONT 11

AktywnyŁącznośćGEO
NORAD 15484·PAYLOAD·🇷🇺 Russia

Wystrzelony Jan 18, 1985 z Baikonur Cosmodrome

Loading…

TLE

ŚwieżeSource: Space-Track

Epoka: Sep 14, 2026, 02:43 UTC

1 15484U 85007A   26257.11364017 -.00000299  00000-0  00000-0 0  9998
2 15484   9.0046 315.0384 0004165 263.1561 129.7323  1.00206724153522

Śledź GORIZONT 11 w czasie rzeczywistym z AllMySat

Download on the App Store